User: anonymous   Login
Location: Capelle
(50.3413°N, 1.9974°E)
Time: 17:45:52
(UTC+00:00)
Language:

Cosmos 1603 - Orbit

View from above orbital plane
View from above orbital plane
View from above satellite
View from above satellite

Ground track
Ground track

The orbit is defined by the following mean orbital elements,

1 15333U          26063.97662341 +.00000000 +00000-0 -11127-3 0 00009
2 15333  71.0237 266.2387 0018073  35.1947 325.0365 14.14502183    02
Epoch (UTC): 04 March 2026 23:26:20
Eccentricity: 0.0018073
inclination: 71.0237°
perigee height: 831 km
apogee height: 857 km
right ascension of ascending node: 266.2387°
argument of perigee: 35.1947°
revolutions per day: 14.14502183
mean anomaly at epoch: 325.0365°

The dashed part of the orbit path shows where the satellite is in the earth's shadow,  

DLR